Weather History for Nashua, NH

Change the Weather History Date:

Thursday, May 3, 2012

  Actual Average Record
Temperature  
Mean Temperature 48 °F -  
Max Temperature 52 °F 63 °F 91 °F (2001)
Min Temperature 45 °F 38 °F 23 °F (1966)
Degree Days  
Heating Degree Days 16    
Moisture  
Dew Point 46 °F    
Average Humidity 92    
Maximum Humidity 97    
Minimum Humidity 82    
Precipitation  
Precipitation 0.07 in - - ()
Sea Level Pressure  
Sea Level Pressure 30.18 in    
Wind  
Wind Speed 4 mph (ESE)    
Max Wind Speed 7 mph    
Max Gust Speed -    
Visibility 4 miles    
Events Rain    
Averages and records for this station are not official NWS values.
T = Trace of Precipitation, MM = Missing Value Source: NWS Daily Summary

Daily Weather History Graph

Daily Weather History Graph

Search for Another Location

Airport:

Trip Planner

Search our weather history database for the weather conditions in past years. The results will help you decide how hot, cold, wet, or windy it might be!

Date:

Astronomy

May. 03, 2012 Rise Set
Actual Time 5:37 AM EDT 7:49 PM EDT
Civil Twilight 5:05 AM EDT 8:20 PM EDT
Nautical Twilight 4:27 AM EDT 8:59 PM EDT
Astronomical Twilight 3:45 AM EDT 9:41 PM EDT
Moon 5:07 PM EDT (5/3) 3:43 AM EDT (5/3)
Length of Visible Light 15h 14m
Length of Day
14h 12m
Waxing Gibbous, 91% of the Moon is Illuminated
May 3
Waxing Gibbous
May 5
Full
May 12
Last Quarter
May 20
New
May 28
First Quarter

Hourly Weather History & Observations

Time (EDT) Temp. Windchill Dew Point Humidity Pressure Visibility Wind Dir Wind Speed Gust Speed Precip Events Conditions
12:51 AM 45.9 °F 43.6 °F 41.9 °F 86% 30.22 in 10.0 mi ESE 4.6 mph - N/A   Overcast
1:51 AM 45.9 °F 42.9 °F 43.0 °F 90% 30.20 in 4.0 mi ESE 5.8 mph - N/A   Overcast
2:51 AM 45.9 °F 42.3 °F 43.9 °F 93% 30.18 in 3.0 mi ESE 6.9 mph - 0.00 in Rain Light Rain
3:43 AM 46.4 °F 45.2 °F 44.6 °F 93% 30.17 in 5.0 mi ESE 3.5 mph - 0.01 in   Scattered Clouds
3:51 AM 45.9 °F 43.6 °F 43.9 °F 93% 30.18 in 6.0 mi ESE 4.6 mph - 0.01 in   Scattered Clouds
4:42 AM 46.4 °F 45.2 °F 44.6 °F 93% 30.17 in 3.0 mi SE 3.5 mph - 0.00 in Rain Light Rain
4:51 AM 45.9 °F 44.6 °F 43.9 °F 93% 30.18 in 4.0 mi SSE 3.5 mph - 0.00 in Rain Light Rain
5:51 AM 45.9 °F 44.6 °F 43.9 °F 93% 30.19 in 2.5 mi East 3.5 mph - 0.02 in Rain Light Rain
6:11 AM 46.4 °F 45.2 °F 44.6 °F 93% 30.18 in 4.0 mi East 3.5 mph - 0.01 in Rain Light Rain
6:51 AM 45.9 °F 44.6 °F 43.9 °F 93% 30.20 in 3.0 mi East 3.5 mph - 0.01 in   Mostly Cloudy
6:57 AM 46.4 °F 45.2 °F 44.6 °F 93% 30.19 in 2.5 mi East 3.5 mph - N/A   Mostly Cloudy
7:07 AM 46.4 °F 45.2 °F 44.6 °F 93% 30.19 in 1.5 mi East 3.5 mph - N/A   Mostly Cloudy
7:19 AM 46.4 °F 45.2 °F 44.6 °F 93% 30.19 in 1.2 mi East 3.5 mph - 0.01 in   Mostly Cloudy
7:36 AM 46.4 °F 45.2 °F 44.6 °F 93% 30.20 in 2.0 mi East 3.5 mph - 0.01 in   Mostly Cloudy
7:51 AM 45.9 °F 42.9 °F 45.0 °F 97% 30.21 in 2.0 mi ESE 5.8 mph - 0.02 in Rain Light Rain
8:04 AM 46.4 °F 43.5 °F 44.6 °F 93% 30.20 in 4.0 mi ESE 5.8 mph - 0.00 in   Mostly Cloudy
8:44 AM 46.4 °F 43.5 °F 44.6 °F 93% 30.20 in 1.8 mi SE 5.8 mph - 0.00 in   Overcast
8:51 AM 46.9 °F - 45.0 °F 93% 30.21 in 2.0 mi SE 5.8 mph - 0.00 in   Overcast
8:58 AM 46.4 °F 43.5 °F 44.6 °F 93% 30.20 in 1.8 mi ESE 5.8 mph - N/A   Overcast
9:13 AM 46.4 °F 42.9 °F 44.6 °F 93% 30.20 in 2.0 mi ESE 6.9 mph - N/A   Overcast
9:14 AM 46.4 °F 42.9 °F 44.6 °F 93% 30.20 in 2.0 mi ESE 6.9 mph - N/A   Overcast
9:51 AM 46.9 °F - 45.9 °F 96% 30.22 in 1.5 mi SE 4.6 mph - N/A   Mostly Cloudy
10:51 AM 47.8 °F - 45.9 °F 93% 30.22 in 1.5 mi SE 4.6 mph - 0.01 in   Mostly Cloudy
10:58 AM 48.2 °F - 46.4 °F 93% 30.21 in 2.5 mi Calm Calm - N/A   Mostly Cloudy
11:07 AM 48.2 °F - 46.4 °F 93% 30.21 in 3.0 mi SE 3.5 mph - N/A   Mostly Cloudy
11:17 AM 48.2 °F - 46.4 °F 93% 30.21 in 3.0 mi ESE 4.6 mph - N/A   Mostly Cloudy
11:24 AM 48.2 °F - 46.4 °F 93% 30.20 in 3.0 mi ESE 4.6 mph - N/A   Mostly Cloudy
11:51 AM 48.9 °F - 46.9 °F 93% 30.22 in 4.0 mi SE 5.8 mph - N/A   Overcast
12:51 PM 50.0 °F - 46.9 °F 89% 30.19 in 10.0 mi SE 5.8 mph - N/A   Overcast
1:14 PM 51.8 °F - 46.4 °F 82% 30.18 in 10.0 mi SE 3.5 mph - N/A   Overcast
1:51 PM 50.9 °F - 46.9 °F 86% 30.19 in 10.0 mi ESE 3.5 mph - N/A   Overcast
2:51 PM 52.0 °F - 46.9 °F 83% 30.17 in 10.0 mi Calm Calm - N/A   Overcast
4:51 PM 52.0 °F - 47.8 °F 86% 30.15 in 10.0 mi SE 3.5 mph - N/A   Overcast
5:51 PM 52.0 °F - 47.8 °F 86% 30.15 in 10.0 mi SE 3.5 mph - N/A   Overcast
6:33 PM 51.8 °F - 48.2 °F 88% 30.13 in 10.0 mi SE 4.6 mph - N/A   Overcast
6:51 PM 52.0 °F - 47.8 °F 86% 30.12 in 8.0 mi SE 6.9 mph - N/A   Overcast
7:51 PM 50.9 °F - 48.9 °F 93% 30.14 in 7.0 mi Calm Calm - N/A   Overcast
8:51 PM 50.9 °F - 48.9 °F 93% 30.14 in 3.0 mi SSE 3.5 mph - N/A   Overcast
8:55 PM 51.8 °F - 48.2 °F 88% 30.13 in 2.5 mi SSE 4.6 mph - N/A   Scattered Clouds
9:24 PM 51.8 °F - 48.2 °F 88% 30.14 in 1.5 mi Calm Calm - N/A   Mostly Cloudy
9:42 PM 51.8 °F - 48.2 °F 88% 30.13 in 1.5 mi SSE 3.5 mph - N/A   Clear
9:51 PM 50.0 °F - 48.9 °F 96% 30.14 in 1.5 mi Variable 4.6 mph - N/A   Mostly Cloudy
10:51 PM 50.0 °F - 48.9 °F 96% 30.14 in 2.0 mi Variable 3.5 mph - N/A   Scattered Clouds
11:25 PM 50.0 °F - 48.2 °F 94% 30.12 in 3.0 mi SE 3.5 mph - N/A   Scattered Clouds
11:51 PM 48.9 °F - 47.8 °F 96% 30.11 in 3.0 mi Variable 3.5 mph - N/A   Scattered Clouds